Skip Page Navigation
NASA JPL Caltech
NASA Logo - Jet Propulsion Laboratory + View the NASA Portal
+ Center for Near-Earth Object Studies
JPL Home Earth Solar System Stars & Galaxies Technology
JPL Solar System Dynamics
BODIES ORBITS EPHEMERIDES TOOLS PHYSICAL DATA DISCOVERY FAQ SITE MAP
IMPORTANT: The SSD Announcement email list is now available. Major changes are coming in the near future, including possible hostname and/or URL changes. To be notified of such changes, subscribe to this email list.

Please visit this page for more details.


JPL Small-Body Database Browser
Search: [ help ]  
295562 (2008 SO66)
Classification: Outer Main-belt Asteroid          SPK-ID: 2295562
Ephemeris | Orbit Diagram | Orbital Elements | Mission Design | Physical Parameters | Discovery Circumstances | Close-Approach Data ]

[ show orbit diagram ]
Orbital Elements at Epoch 2458600.5 (2019-Apr-27.0) TDB
Reference: JPL 12 (heliocentric ecliptic J2000)
 Element Value Uncertainty (1-sigma)   Units 
e .1802827578716809 7.9397e-08  
a 3.964160296813665 8.7639e-08 au
q 3.249490545858677 2.9126e-07 au
i 8.09996768320851 1.2904e-05 deg
node 197.8124663649626 5.3736e-05 deg
peri 230.9011148660778 6.4865e-05 deg
M 82.74966953703732 3.43e-05 deg
tp 2457937.842671250476
(2017-Jul-03.34267125)
0.00027429 TDB
period 2882.87119071883
7.89
9.5601e-05
2.617e-07
d
yr
n .1248755064600148 4.1411e-09 deg/d
Q 4.678830047768654 1.0344e-07 au
  Orbit Determination Parameters
   # obs. used (total)      200  
   data-arc span      6760 days (18.51 yr)  
   first obs. used      2000-10-01  
   last obs. used      2019-04-05  
   planetary ephem.      DE431  
   SB-pert. ephem.      SB431-N16  
   condition code      0  
   norm. resid. RMS      .62071  
   source      ORB  
   producer      Otto Matic  
   solution date      2019-Jul-14 11:14:16  

Additional Information
 Earth MOID = 2.2714 au 
 Jupiter MOID = .812234 au 
 T_jup = 3.013 
[ show covariance matrix ]

Ephemeris | Orbit Diagram | Orbital Elements | Mission Design | Physical Parameters | Discovery Circumstances | Close-Approach Data ]

Physical Parameter Table
Parameter Symbol Value Units Sigma Reference Notes
absolute magnitude H 14.6   n/a MPO352810  
diameter diameter 6.499 km 0.254 urn:nasa:pds:neowise_diameters_albedos::2.0[hildas] (http://adsabs.harvard.edu/abs/2012ApJ...744..197G)  
geometric albedo albedo 0.060   0.014 urn:nasa:pds:neowise_diameters_albedos::2.0[hildas] (http://adsabs.harvard.edu/abs/2012ApJ...744..197G)  

295562 (2008 SO66)          Discovered 2008-Sep-21 by CSS at Catalina
Reference: 20110912/Numbers.arcLast Updated: 2011-09-14

[ show close-approach data ]
Alternate Designations
 2008 SO66 = 2000 TC6 = 2004 GV51 
Ephemeris | Orbit Diagram | Orbital Elements | Mission Design | Physical Parameters | Discovery Circumstances | Close-Approach Data ]
ABOUT SSD CREDITS/AWARDS PRIVACY/COPYRIGHT GLOSSARY LINKS
FirstGov
(server date/time)  
NASA Home Page
Site Manager:   Ryan S. Park
Webmaster  Alan B. Chamberlin